GFSNIL_925_temp_000.txt.gz
Temp
9 9 9 8 8 8 9 9 8 6 5 4 4 5 4 4 4 3 3 3 2 2
9 9 8 8 8 8 8 7 6 5 4 4 4 3 2 4 3 3 3 2 2 1
8 8 7 7 7 7 6 5 5 4 4 2 2 3 3 3 3 3 2 2 1 -0
7 7 7 6 6 6 5 5 4 4 3 3 4 3 3 3 3 2 1 0 -1 -1
7 6 5 5 4 4 4 5 5 4 3 3 3 3 3 3 2 2 0 -0 -1 -1
6 5 5 4 3 4 3 3 3 3 3 3 3 3 3 3 2 0 -0 -1 -1 -2
5 4 4 3 3 2 2 2 2 2 3 3 3 2 2 1 0 -0 -1 -2 -3 -3
5 4 4 3 2 2 1 2 2 2 3 3 2 2 1 -0 -1 -2 -2 -3 -4 -5
4 4 3 3 2 1 2 2 2 2 2 2 1 -0 -1 -2 -2 -3 -4 -5 -6 -7
4 3 3 2 2 2 2 2 1 1 0 0 -0 -1 -2 -3 -4 -5 -6 -7 -7 -8
3 3 2 1 2 2 2 1 1 0 -1 -1 -1 -3 -3 -4 -6 -7 -8 -8 -8 -9
3 3 2 1 2 2 1 1 0 -0 -1 -2 -3 -4 -5 -6 -7 -8 -8 -8 -9 -9
3 3 2 1 2 2 1 1 -0 -1 -2 -3 -4 -5 -6 -7 -8 -8 -8 -9 -9 -9
3 2 2 1 1 1 0 -1 -2 -2 -3 -4 -4 -5 -7 -8 -8 -8 -8 -9 -9 -9

GFSNIL_925_temp_003.txt.gz
Temp
10 9 9 8 7 7 6 6 7 6 5 4 4 4 3 3 3 3 3 2 1 1
9 8 8 7 7 6 6 6 6 5 4 4 4 3 3 3 3 2 2 1 1 1
8 8 8 7 6 6 6 5 4 4 4 5 4 3 3 3 2 3 2 1 1 0
8 7 7 6 5 5 5 4 4 4 4 4 3 3 3 3 3 3 1 1 -0 -0
7 6 5 5 4 4 3 3 3 3 3 2 3 3 4 3 3 2 1 0 -0 -0
6 5 4 4 3 3 2 2 1 2 2 2 2 3 3 2 1 1 -0 -1 -1 -2
5 4 4 3 3 2 2 1 2 2 2 2 2 3 2 1 -0 -1 -1 -2 -2 -3
5 4 4 3 3 2 2 2 2 2 2 2 2 1 0 -1 -1 -2 -2 -3 -3 -4
4 4 4 3 2 2 2 2 1 1 2 1 0 -1 -1 -1 -3 -4 -4 -5 -5 -6
4 4 3 3 1 1 1 1 1 1 0 -1 -1 -1 -2 -2 -4 -5 -5 -6 -6 -6
5 4 3 3 1 1 1 0 0 0 0 -0 -2 -2 -3 -3 -5 -6 -6 -7 -7 -7
4 4 3 2 1 1 1 1 -0 -1 -2 -2 -3 -3 -4 -5 -6 -7 -7 -7 -7 -8
4 3 2 2 2 2 1 0 -0 -2 -2 -2 -3 -4 -5 -6 -7 -7 -7 -7 -7 -8
3 2 2 2 2 1 0 -1 -2 -2 -2 -3 -4 -4 -5 -7 -7 -7 -7 -7 -7 -8

GFSNIL_925_temp_006.txt.gz
Temp
10 10 10 9 8 8 8 8 7 7 7 7 6 5 4 5 5 5 5 4 4 4
9 8 8 8 8 8 7 7 7 6 6 6 5 4 5 5 5 5 4 4 4 4
8 8 8 8 7 7 6 6 6 6 6 5 5 5 5 5 5 4 4 4 4 3
8 8 7 7 6 6 5 5 5 6 5 5 5 5 4 5 4 4 4 4 3 3
8 7 7 6 6 5 5 5 4 4 4 5 4 4 4 4 4 4 4 3 3 2
8 7 6 6 5 5 4 4 4 4 4 4 4 4 4 4 4 3 3 2 2 1
7 7 6 5 5 4 4 4 4 4 4 3 3 3 3 3 3 2 2 1 1 0
7 6 6 5 5 4 4 4 4 3 3 3 3 2 2 2 1 1 1 0 -1 -1
7 6 5 5 4 4 4 4 4 4 3 3 2 -0 -0 0 0 0 -0 -1 -2 -2
6 5 5 5 5 4 4 4 4 4 3 2 1 -1 -1 -1 -1 -1 -1 -2 -3 -3
6 6 6 5 5 4 4 4 4 3 3 2 -0 -2 -2 -2 -2 -2 -2 -3 -4 -4
6 6 6 5 5 4 4 4 4 3 2 1 -0 -2 -3 -3 -3 -3 -4 -4 -4 -5
5 5 5 5 4 4 4 3 3 2 0 -1 -1 -3 -4 -4 -3 -4 -4 -4 -4 -5
5 4 4 4 4 4 3 3 1 -0 -1 -2 -2 -3 -4 -5 -5 -5 -5 -5 -4 -5

GFSNIL_925_temp_009.txt.gz
Temp
12 12 12 11 10 10 10 9 9 9 8 9 8 7 6 5 5 5 5 6 5 5
11 11 10 10 9 9 9 8 8 8 8 7 7 6 5 6 6 6 6 5 5 5
11 10 10 9 9 8 8 8 7 7 8 7 7 6 6 6 6 5 6 5 5 4
11 10 10 9 8 8 7 7 7 7 7 7 7 6 6 6 5 6 5 5 4 4
10 10 10 9 8 7 7 7 6 6 6 6 6 6 6 5 5 5 5 4 4 3
11 10 9 8 8 7 7 6 6 6 6 6 5 5 5 5 5 4 3 3 3 2
11 10 9 8 7 7 6 6 6 6 6 5 5 5 5 5 4 3 3 2 2 2
10 9 8 8 7 6 6 6 6 6 5 4 4 4 3 2 3 3 2 2 2 1
10 9 8 7 7 6 6 6 6 6 5 4 4 3 2 1 1 2 2 1 1 -0
9 8 8 7 7 7 6 6 6 6 5 4 4 1 0 -1 -1 1 1 0 -0 -1
9 8 8 7 7 7 7 6 6 5 5 4 2 1 -0 -1 -1 -0 -0 -1 -1 -2
8 8 8 7 7 7 6 6 6 5 5 4 1 1 -1 -2 -1 -1 -2 -2 -2 -3
8 7 7 7 7 6 6 6 5 5 4 3 2 -0 -1 -2 -2 -2 -2 -2 -2 -3
7 7 6 6 6 5 5 5 4 3 2 1 -0 -1 -2 -3 -4 -3 -3 -3 -3 -3

GFSNIL_925_temp_012.txt.gz
Temp
13 13 12 11 10 10 10 9 9 9 8 8 8 8 7 6 6 5 5 5 5 5
12 12 11 10 10 10 9 9 8 8 8 8 7 7 6 6 6 6 5 5 4 5
11 11 10 10 9 9 8 8 8 7 7 7 7 7 6 6 6 6 5 5 5 4
11 10 10 10 9 8 8 7 7 7 7 7 7 7 6 6 6 6 5 5 4 3
11 11 10 10 9 8 7 7 7 6 6 6 6 6 5 5 5 5 3 2 3 2
11 10 10 10 9 8 7 7 6 6 6 6 6 5 5 5 5 4 3 3 2 2
11 11 10 9 8 8 7 6 6 6 6 6 5 5 5 5 4 3 3 3 2 2
11 10 9 9 8 7 7 6 6 6 6 6 5 4 4 3 3 2 2 2 2 1
11 10 9 8 7 7 7 7 6 6 6 6 5 4 3 3 2 1 1 1 1 0
10 9 8 7 7 7 7 7 7 6 6 6 5 4 2 2 1 0 0 0 -0 -1
8 8 8 8 8 8 8 7 7 6 6 5 4 3 2 1 0 -0 -0 -1 -1 -1
7 8 8 8 7 7 7 7 7 6 6 5 3 2 1 0 -1 -1 -1 -2 -2 -2
5 7 7 5 6 6 6 6 6 6 5 4 2 1 -0 -1 -1 -2 -2 -2 -2 -2
5 5 5 5 5 5 5 5 5 4 3 2 1 1 -0 -1 -2 -3 -3 -4 -3 -3

GFSNIL_925_temp_015.txt.gz
Temp
14 14 13 12 11 10 10 9 9 8 8 8 7 7 7 7 6 6 5 5 5 5
13 12 12 11 10 10 9 9 8 8 7 7 7 7 7 7 6 6 5 5 5 4
12 12 11 10 10 9 8 8 7 7 7 7 7 7 6 6 6 6 5 4 3 3
11 11 10 10 9 9 8 7 7 7 6 6 6 6 6 6 5 5 4 3 3 2
11 10 10 9 9 8 8 7 7 6 6 6 6 6 5 5 5 4 4 3 2 2
11 10 10 10 9 8 8 7 7 6 6 6 6 6 5 5 4 4 3 3 2 2
11 11 10 10 9 8 7 7 6 6 6 6 6 5 5 4 4 3 3 2 2 2
11 11 10 9 8 8 7 7 7 6 6 6 6 5 4 4 4 3 3 2 1 1
11 10 9 8 7 6 6 6 7 6 6 6 6 5 4 3 3 2 2 1 0 0
10 9 7 6 5 6 6 7 7 7 6 6 6 5 4 3 2 2 1 -0 -0 -1
8 7 6 5 6 7 7 6 6 7 6 6 5 4 3 2 2 1 -0 -1 -1 -2
7 6 4 5 6 6 4 5 6 6 6 5 4 3 2 1 0 -0 -1 -1 -2 -2
5 4 5 5 4 4 4 4 4 4 5 5 4 3 2 1 -0 -1 -1 -2 -3 -3
3 3 4 3 4 3 3 3 3 4 3 4 3 2 1 0 -1 -1 -2 -3 -3 -4

GFSNIL_925_temp_018.txt.gz
Temp
14 14 13 13 11 10 10 9 8 8 8 7 7 7 7 7 6 6 5 5 5 4
13 13 13 11 11 10 9 9 8 7 7 7 7 7 6 6 6 6 5 5 5 4
13 12 12 11 10 9 9 8 8 7 7 7 6 6 6 6 6 5 5 4 4 3
12 12 11 11 10 9 8 8 8 7 7 6 6 6 6 5 5 5 4 3 3 3
12 11 10 10 9 9 8 8 7 7 6 6 6 6 5 5 5 4 4 3 3 2
11 11 10 10 9 9 8 8 7 7 6 6 6 6 5 5 5 4 3 3 2 2
11 11 10 10 9 9 8 7 7 7 6 6 6 6 5 5 4 4 3 2 2 2
11 11 10 9 8 8 7 7 7 7 6 6 6 6 5 5 4 3 3 2 1 1
11 10 9 7 7 6 6 6 6 7 6 6 6 6 5 5 4 3 2 2 1 0
9 8 7 6 5 5 5 5 6 5 6 6 6 6 5 4 3 2 1 1 -0 -1
7 6 5 4 4 4 4 5 4 5 5 6 6 5 5 4 2 2 1 -0 -1 -1
6 5 4 4 4 3 4 4 4 4 4 5 5 5 4 3 2 1 0 -1 -1 -2
4 4 4 3 3 3 3 3 3 3 3 3 4 4 3 2 2 1 -0 -1 -2 -2
4 4 4 3 3 3 3 2 2 2 2 3 3 3 3 2 1 1 -1 -1 -2 -2

GFSNIL_925_temp_021.txt.gz
Temp
15 14 13 13 12 11 10 9 9 8 7 7 7 6 6 6 5 5 5 5 5 5
14 14 13 13 11 11 10 9 8 7 7 7 7 6 6 6 5 5 5 5 5 4
13 13 13 12 11 11 10 8 8 7 7 7 6 6 6 6 6 5 5 5 5 4
13 13 12 11 11 9 9 8 8 7 7 7 6 6 6 5 5 5 4 4 4 3
12 12 11 11 10 9 9 8 8 8 7 7 6 6 6 5 5 5 5 4 3 3
11 11 11 10 10 9 9 8 8 7 7 6 6 6 6 5 5 5 5 4 3 3
11 11 11 10 10 9 9 8 8 7 7 6 6 6 6 5 5 5 4 3 3 2
11 11 10 10 9 9 8 7 7 6 5 6 6 6 6 6 5 4 4 2 2 1
10 9 9 9 8 7 6 6 5 5 5 5 6 6 6 6 5 4 3 2 1 1
9 8 8 7 5 5 5 5 5 4 4 5 5 6 6 5 5 3 3 2 1 1
7 6 5 5 5 5 4 4 3 3 4 4 5 5 5 5 4 3 2 2 1 0
4 4 4 4 4 4 4 3 3 3 3 4 4 4 4 4 3 2 2 1 0 -0
4 3 3 3 4 3 3 3 3 3 3 3 3 3 3 3 3 2 1 1 -0 -1
4 3 3 4 3 2 2 3 3 3 2 2 2 3 3 3 2 2 1 0 -0 -1

GFSNIL_925_temp_024.txt.gz
Temp
14 15 14 13 13 12 11 10 10 10 10 8 8 8 7 6 6 6 5 5 5 5
14 14 14 13 12 12 11 10 10 9 9 8 8 7 7 6 6 5 5 5 5 4
14 13 12 12 11 11 10 9 9 9 8 7 7 7 6 6 5 5 5 5 5 4
12 11 11 11 11 11 10 9 9 9 8 7 6 6 6 6 5 5 5 5 4 4
11 10 10 11 11 11 10 9 9 8 7 7 6 6 6 5 5 5 5 5 4 4
10 11 11 11 11 10 9 9 8 7 7 6 6 6 5 5 5 5 5 5 4 4
10 10 11 10 9 9 9 8 8 7 7 6 5 5 6 6 6 6 5 5 4 3
9 10 9 9 9 9 8 8 7 6 6 5 4 5 5 5 5 5 5 4 3 3
9 8 8 8 8 8 7 6 5 5 4 4 4 5 5 5 4 4 4 4 3 2
8 7 7 8 7 6 5 5 4 4 4 4 4 4 5 5 5 5 4 3 3 2
7 6 6 5 5 4 4 4 3 3 3 3 4 4 4 4 4 4 4 3 2 2
5 4 4 4 3 3 3 3 3 3 1 1 3 3 3 3 3 3 3 2 2 1
4 3 3 3 3 3 3 3 2 1 1 2 3 3 2 2 2 2 2 1 1 1
3 4 4 4 3 3 2 2 2 2 2 2 2 2 2 2 2 2 1 1 1 1

GFSNIL_925_temp_027.txt.gz
Temp
14 14 13 13 12 12 11 10 10 10 10 9 9 8 8 7 7 7 6 5 5 5
14 14 13 12 12 11 11 10 10 9 9 9 7 8 7 6 7 6 6 5 5 4
13 13 11 11 11 10 9 10 9 9 8 7 7 7 7 7 7 6 5 5 5 4
13 12 11 10 9 9 10 9 8 9 7 7 7 6 7 7 6 6 5 5 5 4
12 10 10 9 10 10 10 8 9 8 8 7 7 7 6 6 6 5 4 5 4 4
9 8 8 8 8 8 8 8 8 8 7 7 6 6 6 5 5 5 5 5 4 4
9 8 7 8 7 7 7 8 8 7 6 6 6 5 4 3 4 4 5 5 4 4
8 8 7 7 7 7 8 8 8 7 6 5 4 4 4 3 3 4 4 4 5 4
7 7 7 7 7 7 7 7 6 5 5 4 3 4 3 3 3 4 4 3 3 4
7 7 7 7 7 6 6 5 4 4 3 2 3 4 2 3 3 3 3 3 3 2
6 6 5 5 4 4 4 4 3 2 2 3 3 2 1 2 3 2 2 2 2 2
4 4 4 3 3 3 3 2 2 2 3 2 2 2 2 2 2 1 2 2 2 1
3 3 3 3 3 3 3 3 3 3 2 2 1 2 2 2 1 1 1 2 2 2
4 3 3 3 3 3 2 2 1 1 2 1 1 2 2 2 1 1 0 -0 0 1

GFSNIL_925_temp_030.txt.gz
Temp
16 15 14 13 12 12 11 10 9 9 8 9 9 9 9 7 7 8 8 8 8 9
15 14 13 12 12 12 10 10 9 10 8 8 8 9 8 7 8 7 7 8 7 7
16 14 12 11 11 10 10 9 8 7 8 7 7 7 6 7 7 7 7 7 7 7
16 13 11 11 10 9 10 9 8 8 7 6 7 6 7 7 8 6 6 7 7 7
13 12 12 11 11 10 10 7 7 7 6 7 7 7 6 7 6 5 5 6 7 6
14 12 11 10 9 8 7 7 6 6 6 7 6 6 6 5 5 4 4 6 7 6
13 12 12 10 9 8 7 5 5 6 6 6 6 6 4 4 4 4 5 5 6 6
12 12 11 10 10 9 8 6 5 6 6 5 5 4 4 3 3 4 5 5 5 5
11 10 10 9 7 5 5 5 6 6 5 4 3 3 3 3 3 4 4 5 5 5
10 9 8 7 6 5 5 5 5 4 4 3 4 4 2 2 2 2 3 4 5 5
9 8 7 6 5 5 5 5 4 3 4 3 3 3 2 2 2 2 3 4 4 4
8 7 7 6 5 5 5 4 3 3 3 3 3 2 2 2 2 3 3 3 4 4
7 6 6 6 5 5 4 4 3 3 2 2 2 2 2 1 1 2 2 3 3 3
6 5 4 4 3 3 3 3 3 3 3 3 3 2 1 0 -0 1 1 2 2 2

GFSNIL_925_temp_033.txt.gz
Temp
19 19 19 18 17 15 13 12 12 13 9 9 10 9 8 9 9 8 7 9 10 10
18 18 18 17 16 13 13 12 12 10 9 10 9 7 8 7 7 7 8 9 9 9
19 18 17 16 13 12 11 10 10 9 8 8 7 8 6 6 7 8 8 8 8 8
18 18 16 14 12 11 10 10 11 9 8 7 7 6 6 6 7 8 8 7 6 7
17 16 15 12 11 11 11 11 10 10 8 6 6 6 6 6 7 8 6 6 5 6
15 14 13 12 12 11 10 10 10 8 6 5 6 5 6 6 7 5 5 5 5 7
16 14 13 12 11 9 9 8 7 5 5 6 5 6 6 6 4 4 5 4 6 6
15 14 13 12 11 9 8 7 6 5 5 6 6 6 5 4 4 5 3 4 6 6
14 13 13 12 10 9 8 7 6 5 6 6 5 5 4 4 4 3 3 3 4 5
12 11 10 10 9 8 7 6 5 5 5 5 4 4 4 3 3 3 2 2 2 3
11 10 10 9 8 6 5 5 5 5 5 6 5 4 4 4 3 2 2 2 4 5
10 10 9 8 7 7 7 7 6 6 5 5 4 3 3 2 2 3 3 4 4 4
9 9 8 6 6 5 5 5 5 3 4 3 3 3 3 1 2 2 2 2 3 3
7 6 5 5 4 4 4 4 4 4 5 4 4 4 2 1 -0 -2 -2 -2 -1 -0

GFSNIL_925_temp_036.txt.gz
Temp
20 20 19 19 19 18 16 16 15 15 15 14 12 11 10 11 10 10 9 8 8 8
20 19 19 16 18 17 15 15 15 14 13 11 10 10 10 10 9 8 7 7 8 9
20 19 18 17 17 15 14 14 13 13 11 9 9 9 10 9 8 7 7 7 8 8
20 19 17 16 16 14 13 12 11 10 10 9 8 8 8 8 7 6 7 7 7 7
20 18 18 16 15 14 13 11 11 10 10 9 7 7 7 7 6 6 6 6 7 6
19 17 15 14 13 12 12 11 10 10 9 8 6 6 7 6 6 5 5 6 6 5
14 14 14 13 12 11 11 10 10 10 9 7 6 6 6 5 5 5 5 6 5 4
14 14 13 12 11 11 10 9 8 7 7 6 6 5 5 5 5 5 6 5 4 4
15 14 13 11 10 9 8 7 6 6 5 5 5 6 6 5 5 5 4 4 3 3
13 12 11 10 9 8 8 7 6 5 5 5 6 5 5 5 4 4 3 3 3 2
11 11 10 9 8 7 6 5 5 5 5 5 5 5 5 4 3 3 3 3 3 3
11 10 9 8 7 6 6 6 6 6 6 6 4 4 4 3 2 2 2 2 3 2
10 9 8 7 6 6 6 6 6 5 5 5 4 3 3 2 1 1 0 0 -0 -0
7 6 6 6 6 5 5 4 4 4 4 5 3 2 1 1 -0 -2 -2 -3 -3 -3

GFSNIL_925_temp_039.txt.gz
Temp
18 19 19 20 20 19 19 17 17 16 16 16 15 15 14 13 11 10 10 10 10 9
19 19 19 19 19 19 19 16 15 16 15 15 15 14 13 12 10 10 10 9 8 8
20 19 20 19 19 19 17 16 15 13 14 14 12 12 11 10 9 9 9 8 8 7
20 20 20 19 17 16 15 14 13 13 12 12 11 11 9 9 8 8 8 7 6 6
17 16 15 15 15 15 13 13 13 13 12 11 10 10 8 8 7 8 7 6 6 6
17 18 15 15 14 13 13 13 12 11 11 10 9 8 7 7 7 7 6 5 5 5
16 15 14 13 13 12 11 11 10 10 10 10 9 8 7 6 6 5 5 5 5 5
14 14 13 12 12 11 10 10 10 10 9 8 7 6 6 6 5 5 5 5 5 5
14 13 12 12 11 10 10 9 8 7 7 6 6 5 5 5 5 5 5 5 5 4
12 11 11 10 10 9 8 7 6 6 5 5 5 5 5 5 5 4 4 4 3 3
11 10 9 9 8 7 7 6 6 5 5 5 5 5 5 4 4 4 3 3 2 1
10 9 8 8 7 7 6 6 5 5 5 5 5 5 5 4 3 2 1 1 1 0
9 8 7 6 6 6 6 5 5 5 5 5 3 3 2 2 1 1 1 0 -0 -1
8 7 7 6 6 6 6 6 5 5 3 3 3 1 1 1 0 -1 -2 -2 -3 -4

GFSNIL_925_temp_042.txt.gz
Temp
15 15 15 16 16 16 17 18 18 17 16 16 15 15 14 14 14 14 13 12 11 10
15 15 15 16 16 16 18 19 17 18 17 16 14 13 13 14 14 13 12 11 10 10
16 16 16 16 17 16 17 16 15 15 16 15 14 12 12 12 12 11 10 9 9 9
17 17 16 15 15 15 14 15 15 14 14 13 12 11 11 11 11 10 9 8 8 8
17 17 15 15 15 14 14 14 13 12 12 12 12 11 10 10 9 8 7 7 7 6
18 17 16 16 15 14 13 14 13 12 11 11 11 10 9 8 8 7 8 7 6 5
17 16 16 15 14 14 14 12 12 11 11 11 10 9 9 8 7 7 6 6 6 5
17 15 14 13 13 13 13 12 12 11 11 10 9 9 8 7 6 6 6 5 5 5
13 13 12 12 12 11 11 10 10 9 9 8 8 7 7 6 6 6 5 5 4 4
11 11 11 11 11 10 9 8 8 8 7 6 6 6 5 5 5 5 4 4 4 3
10 9 9 9 8 8 8 9 7 6 6 6 5 5 5 5 4 4 3 3 3 2
9 8 8 8 8 7 7 6 5 5 5 5 5 5 4 4 3 2 2 1 1 1
9 9 8 7 7 7 6 5 5 5 5 4 3 3 3 4 4 2 1 -0 -1 -1
9 8 8 7 6 6 5 4 4 3 3 3 2 2 2 1 2 0 -0 -1 -2 -3

GFSNIL_925_temp_045.txt.gz
Temp
12 13 13 14 14 15 15 16 17 17 17 17 16 14 14 13 12 13 13 14 14 14
13 13 13 14 14 14 15 15 16 16 15 15 15 14 13 13 13 12 13 13 13 12
13 14 14 14 14 14 15 15 15 15 14 14 14 13 13 12 12 11 11 12 11 11
14 14 14 14 14 14 14 15 15 14 14 14 13 12 12 11 11 10 10 10 10 8
14 14 14 15 14 14 14 15 13 13 13 14 11 12 11 11 10 10 10 9 8 7
14 14 15 16 14 14 14 13 13 15 13 12 13 11 11 9 10 10 9 8 7 6
14 15 15 14 14 13 13 13 13 15 14 11 11 10 9 9 9 8 8 7 7 7
15 15 14 14 14 13 13 12 12 13 12 11 10 9 9 9 8 7 6 6 6 6
14 14 14 14 13 13 13 12 12 11 10 9 9 10 9 8 7 6 6 5 5 4
14 14 13 12 12 12 10 10 10 9 9 9 9 8 8 7 6 6 5 5 3 3
12 12 11 11 10 10 10 9 9 9 8 8 7 7 6 6 5 5 4 3 3 2
10 9 9 9 9 9 9 8 8 8 7 6 6 5 5 4 4 3 2 2 1 1
10 10 9 9 8 7 8 7 6 5 5 4 4 4 4 4 3 2 1 0 -1 -2
9 10 9 8 7 6 5 4 3 2 2 2 2 2 2 3 3 2 -0 -1 -1 -2

GFSNIL_925_temp_048.txt.gz
Temp
12 12 12 13 13 13 14 15 15 15 16 17 16 16 15 14 13 12 12 12 12 12
11 11 11 12 12 13 13 14 14 15 16 17 16 15 14 13 13 11 12 12 11 12
11 11 11 12 12 13 13 14 15 16 16 15 15 14 13 13 14 12 12 11 10 10
12 12 12 13 13 14 15 15 15 15 15 15 14 13 13 12 12 11 10 10 10 9
13 12 12 12 13 17 13 13 14 14 15 15 12 12 12 12 12 11 10 10 9 8
12 13 13 13 14 14 14 14 14 13 14 13 13 12 12 12 11 11 10 8 8 8
13 13 13 13 14 14 14 13 13 12 12 12 12 13 12 12 10 9 8 8 8 8
13 13 13 14 14 13 13 13 12 12 12 12 12 12 11 11 9 8 8 7 7 6
14 13 13 13 13 13 12 12 12 12 12 12 11 11 10 10 9 8 7 6 5 5
14 13 13 13 13 13 12 12 12 12 12 11 10 10 9 8 8 7 6 5 4 3
14 13 13 12 12 12 12 11 11 10 10 9 9 8 7 7 6 6 5 4 3 3
12 11 11 11 11 10 10 8 8 8 7 8 7 6 6 6 5 4 3 2 2 1
12 11 10 9 8 7 7 6 6 5 5 5 4 4 4 5 4 2 1 -0 -1 -1
10 10 8 7 6 5 5 4 3 2 2 2 2 3 3 3 3 2 0 -1 -2 -3

GFSNIL_925_temp_051.txt.gz
Temp
12 13 13 13 14 14 13 13 14 15 15 15 16 16 16 15 15 14 13 12 11 12
12 12 12 13 13 13 14 14 14 15 15 15 15 15 15 16 15 14 14 13 12 12
12 12 12 12 12 13 13 14 15 15 15 15 15 15 15 14 14 13 13 12 11 11
11 11 11 11 13 14 14 14 15 15 14 14 14 15 14 14 14 13 12 12 11 11
11 11 11 11 11 11 12 13 13 12 12 12 13 13 14 14 13 12 12 12 11 11
11 11 11 11 12 12 13 12 12 12 12 13 13 13 13 12 12 11 13 11 10 10
12 12 12 12 12 12 12 13 12 13 13 13 13 12 11 11 11 11 11 10 10 9
13 12 12 12 12 12 12 13 13 13 12 13 12 11 12 11 11 11 10 9 9 8
13 13 12 13 13 13 13 12 12 12 13 12 12 12 12 12 11 10 9 8 7 6
14 13 13 13 13 13 13 13 12 12 12 12 12 12 12 11 10 9 7 7 6 5
14 14 14 13 13 13 13 12 12 12 12 12 11 11 10 9 8 7 6 5 5 5
14 14 13 13 12 12 12 12 11 10 10 9 9 8 7 7 6 5 3 3 3 3
12 11 12 12 11 10 9 8 7 6 6 6 6 5 5 6 5 3 1 0 -0 -0
11 11 11 9 8 7 6 4 3 3 2 3 3 3 4 4 3 1 -2 -2 -3 -3

GFSNIL_925_temp_054.txt.gz
Temp
14 14 15 15 15 15 15 15 15 15 14 15 15 15 15 15 15 15 15 15 15 15
14 15 15 16 16 16 17 17 16 15 15 15 15 15 15 15 15 15 15 15 15 15
15 15 15 15 15 16 16 16 15 15 14 15 15 15 15 15 15 15 15 15 14 13
15 15 15 15 15 15 15 15 15 15 15 15 15 15 15 15 15 15 15 14 13 12
15 15 15 15 15 14 15 15 15 15 15 15 16 16 15 15 15 15 15 14 12 11
15 15 15 14 14 15 14 14 14 15 15 15 15 15 14 14 14 14 14 13 11 13
15 15 15 15 15 14 15 14 14 15 15 15 15 14 14 14 14 14 13 13 12 11
16 16 15 15 15 15 14 14 15 15 15 15 15 15 15 14 14 13 12 12 11 11
17 16 16 16 15 15 15 15 15 15 15 15 14 14 14 13 11 11 11 10 10 10
17 17 16 16 16 16 15 15 15 15 15 15 15 14 12 12 11 11 10 9 8 8
18 17 17 16 16 16 15 15 15 15 14 14 13 13 13 12 10 10 9 8 7 7
18 17 17 17 16 16 15 14 13 13 12 12 12 11 11 10 8 7 5 4 4 4
18 18 17 16 15 11 11 11 9 8 8 8 8 7 8 8 6 3 2 1 0 1
17 16 13 9 10 9 8 6 5 4 3 4 3 3 5 5 4 2 -1 -2 -2 -1

GFSNIL_925_temp_057.txt.gz
Temp
14 13 14 14 14 14 13 14 15 16 16 16 16 15 15 16 16 16 16 16 16 16
13 14 14 15 15 15 15 15 14 15 15 15 15 15 16 16 16 16 16 16 16 16
13 14 15 15 16 16 16 16 16 15 15 15 15 15 16 16 16 16 16 16 16 16
15 15 15 15 16 16 16 16 17 17 16 16 16 16 16 16 16 16 16 16 16 16
17 16 16 16 16 16 17 17 17 17 17 17 17 16 16 16 16 16 16 16 16 16
18 18 17 17 17 17 17 17 17 17 17 17 16 16 16 16 16 16 16 16 16 16
18 18 17 17 17 17 17 16 16 16 16 16 16 16 16 17 17 17 16 15 15 15
19 18 18 17 17 17 17 17 16 16 16 16 16 16 16 16 16 16 15 15 15 14
20 18 18 18 17 17 17 16 16 16 16 16 16 16 16 16 16 15 14 14 14 14
20 19 19 18 18 17 17 17 17 16 16 16 16 16 16 15 15 15 14 14 13 12
21 20 19 19 18 18 18 17 17 17 16 16 16 16 16 15 14 14 13 12 11 10
21 21 20 19 19 18 18 17 17 17 16 16 15 15 14 14 12 11 10 9 8 7
22 21 20 20 19 18 17 16 12 12 12 12 11 11 11 11 10 7 4 3 2 2
22 21 20 19 19 12 8 8 6 6 4 6 5 4 6 6 5 2 -1 -2 -2 -3

GFSNIL_925_temp_060.txt.gz
Temp
13 13 13 13 13 13 14 15 15 15 16 17 16 16 16 16 16 16 16 16 16 16
13 13 13 13 13 13 13 14 14 14 15 16 16 15 15 15 15 16 16 16 16 16
13 13 13 13 13 14 14 14 14 14 15 16 15 16 15 15 16 15 15 16 16 15
13 14 14 14 14 14 14 14 14 14 14 15 15 15 15 15 15 16 15 16 15 15
13 13 14 14 15 15 15 15 15 15 15 15 15 15 15 15 15 15 15 15 15 15
14 14 14 14 14 15 15 16 16 16 16 16 15 15 15 15 15 16 16 16 16 16
16 15 15 15 15 15 16 16 16 16 16 16 17 17 16 16 16 16 16 16 16 16
19 17 17 16 16 16 16 16 16 17 17 17 17 17 17 17 16 16 16 16 16 16
20 19 18 18 17 17 17 16 17 17 17 16 16 17 17 16 16 16 16 16 16 16
21 20 19 18 18 17 17 17 17 16 16 16 16 16 16 16 16 16 16 16 15 15
21 21 21 19 18 18 17 17 17 16 16 16 16 16 16 16 16 15 15 15 15 14
23 22 21 20 19 18 18 17 17 16 16 16 16 16 16 16 16 14 13 13 12 11
24 22 21 21 20 19 18 17 17 15 13 13 14 13 15 15 14 10 7 5 4 4
13 19 22 21 20 19 18 14 9 8 6 7 7 7 9 11 10 6 1 -1 -2 -2

GFSNIL_925_temp_063.txt.gz
Temp
12 12 12 13 13 13 13 14 15 16 16 16 16 16 17 17 16 16 17 17 17 17
13 13 13 13 13 13 13 14 14 15 15 16 16 16 16 16 16 16 16 16 16 17
13 13 13 13 13 13 13 14 14 15 15 15 15 16 15 16 16 16 16 16 16 16
13 13 13 13 13 13 13 13 14 14 15 15 15 15 15 15 15 15 15 15 15 16
13 13 13 13 13 13 13 13 13 14 14 14 14 14 15 15 14 14 14 14 14 14
13 13 13 13 13 14 13 13 13 13 13 14 14 14 14 14 14 14 14 14 14 14
13 13 13 13 14 13 13 13 13 13 13 13 14 14 14 14 14 14 14 14 14 14
14 13 13 13 13 13 13 13 14 14 14 14 14 14 14 14 14 14 14 14 14 14
15 14 14 13 13 13 13 13 14 14 15 14 14 15 15 15 14 14 14 14 14 14
19 17 15 15 14 14 14 14 14 14 14 15 15 15 15 15 15 15 15 14 14 14
12 15 18 17 16 16 15 15 15 15 15 15 15 15 15 16 16 15 15 15 15 14
10 9 11 15 17 17 16 16 16 15 15 15 15 15 15 15 15 14 14 13 13 13
7 6 7 8 11 17 17 16 16 15 15 14 14 14 15 15 14 12 9 7 7 7
3 3 4 5 8 14 16 16 14 11 8 9 10 9 10 13 13 10 6 3 1 1

GFSNIL_925_temp_066.txt.gz
Temp
12 12 12 12 13 13 14 14 15 15 15 15 15 16 16 16 17 17 17 17 17 17
12 12 12 12 13 13 14 13 14 15 16 16 16 16 17 17 16 16 17 17 16 17
12 12 13 13 13 13 13 13 13 14 15 15 16 16 16 16 16 16 16 16 16 16
12 12 12 12 13 13 13 13 13 14 15 15 15 16 15 15 15 15 16 16 16 16
13 13 12 12 12 13 12 13 13 13 14 14 15 15 15 14 14 14 14 14 14 15
12 12 13 13 12 13 13 12 13 13 13 13 13 13 14 14 14 14 14 14 14 14
12 13 13 13 13 13 13 12 12 12 12 12 13 13 13 13 13 13 14 14 14 14
12 12 12 12 13 13 13 13 13 13 12 12 12 12 13 13 13 13 13 13 13 13
13 13 13 12 12 12 13 13 13 13 13 12 12 12 13 13 13 13 13 13 13 13
9 10 12 12 12 12 12 13 13 13 13 13 13 13 13 13 13 13 13 13 13 13
6 8 7 8 10 13 13 12 13 13 12 13 13 13 13 13 13 13 13 13 13 13
4 4 4 5 6 7 9 12 13 13 13 12 13 13 13 14 13 12 13 13 13 14
1 1 2 2 3 5 5 6 11 14 13 14 13 13 14 14 13 12 12 12 11 12
-1 -1 -0 -1 1 2 3 4 7 10 8 7 7 9 10 12 13 11 10 7 4 4

GFSNIL_925_temp_069.txt.gz
Temp
13 12 12 12 12 12 12 12 12 13 13 13 14 14 14 13 14 14 14 17 17 17
12 13 12 12 12 12 12 12 12 13 13 13 13 13 13 13 13 13 13 16 17 17
12 13 13 12 12 12 12 13 13 13 13 13 13 13 13 13 14 14 14 16 16 16
12 12 12 12 12 12 12 13 13 14 14 13 13 13 12 12 13 13 14 15 15 16
12 12 12 12 12 13 13 14 14 13 13 13 14 13 13 13 13 14 14 15 15 15
12 12 12 12 13 13 14 13 13 13 13 13 13 13 13 14 14 14 14 14 14 13
12 12 12 12 12 13 13 13 13 13 12 12 12 13 13 13 13 13 13 13 13 13
12 12 12 12 12 12 12 12 12 13 13 12 12 12 12 13 13 13 12 13 13 13
9 10 11 12 12 12 12 12 12 12 12 12 12 13 12 12 12 12 12 12 12 13
5 6 7 8 9 11 12 12 12 12 12 12 12 13 13 13 12 12 12 12 12 12
2 3 3 4 5 5 6 8 9 11 12 12 12 12 13 13 12 11 11 12 12 12
0 1 2 2 2 2 4 4 5 6 7 9 12 12 12 13 12 11 11 11 11 11
-2 -1 -1 -1 -0 0 1 2 3 3 3 3 5 7 9 10 10 11 11 11 11 11
-4 -3 -3 -2 -2 -1 -0 0 -1 -1 -1 -1 -2 -1 1 5 7 8 10 9 5 4

GFSNIL_925_temp_072.txt.gz
Temp
13 12 13 13 12 12 12 12 12 12 13 13 13 13 13 14 15 15 15 14 14 15
12 12 12 13 12 12 12 12 12 12 13 12 13 12 13 13 14 14 14 14 13 13
12 12 12 12 12 12 12 12 11 11 12 12 12 12 12 12 13 13 13 13 12 13
12 12 12 12 12 12 13 12 12 12 12 12 12 12 12 12 12 12 13 12 12 13
12 12 12 12 12 12 12 12 12 13 13 13 13 13 12 12 12 12 12 12 12 12
12 12 12 13 13 12 12 12 12 12 13 13 13 13 13 13 12 12 12 12 12 12
12 12 12 12 13 13 13 13 13 13 13 13 13 13 12 12 12 12 12 12 12 12
10 12 12 12 12 12 13 13 13 13 13 13 14 13 12 12 12 12 12 12 12 12
7 8 9 9 10 11 12 12 12 12 12 12 12 12 12 12 12 11 12 12 12 12
3 4 5 6 7 7 8 9 9 10 11 11 11 12 12 12 12 11 12 12 12 12
1 1 2 3 3 3 4 5 5 6 6 7 6 7 8 9 10 10 11 11 11 11
-2 -1 -0 -0 0 1 1 2 2 2 2 2 1 0 3 5 7 8 10 10 11 10
-2 -2 -2 -2 -1 -0 0 0 -1 -2 -2 -2 -2 -2 1 4 6 7 7 9 5 5
-4 -3 -3 -3 -2 -2 -2 -2 -3 -3 -4 -4 -4 -4 -3 1 2 2 1 -2 -3 -3

GFSNIL_925_temp_075.txt.gz
Temp
13 13 13 13 13 12 12 12 12 12 13 13 12 13 12 14 14 14 14 15 15 15
13 13 13 13 13 12 12 12 12 13 12 12 13 12 12 13 13 14 14 14 14 14
12 13 13 13 13 12 12 12 12 12 12 12 12 12 12 12 13 13 14 14 15 14
12 12 12 12 12 12 12 12 12 12 12 12 12 12 12 12 12 12 13 13 13 13
11 11 11 11 12 12 12 12 12 12 11 11 11 12 11 11 12 12 12 12 12 11
12 12 11 11 11 11 12 12 12 12 12 12 12 12 11 12 12 11 11 11 11 11
11 12 12 11 11 11 11 11 12 12 12 12 12 12 13 12 12 12 12 12 12 12
9 10 11 11 11 12 12 12 11 11 11 12 12 12 12 12 12 12 12 12 12 12
5 6 6 7 9 10 10 10 11 11 11 11 10 9 10 11 11 12 12 12 12 12
3 3 3 4 5 5 6 7 6 6 7 7 6 5 7 8 9 10 10 11 11 12
1 2 2 2 2 3 3 3 3 2 3 2 1 3 4 6 8 8 8 9 10 10
-0 -0 0 0 1 1 2 1 -1 -1 -1 -2 -2 0 3 6 7 7 6 5 5 3
-2 -2 -1 -1 -1 -1 -1 -2 -2 -3 -3 -4 -3 -4 -1 2 1 2 -0 -1 -2 -3
-3 -3 -2 -2 -2 -2 -2 -3 -3 -3 -4 -4 -5 -5 -5 -2 -3 -4 -5 -6 -6 -6

GFSNIL_925_temp_078.txt.gz
Temp
15 13 14 14 15 14 13 13 13 13 13 12 12 13 13 12 13 14 14 15 15 16
14 14 14 13 13 13 13 13 13 12 12 12 13 13 13 13 13 13 13 14 14 15
15 14 13 13 13 14 13 12 13 12 12 12 12 12 12 12 12 12 13 13 13 14
15 14 13 13 13 13 12 12 12 12 12 12 12 12 11 12 12 11 11 12 12 13
14 14 14 13 13 12 12 12 12 12 12 12 12 12 12 12 12 11 11 12 11 12
12 12 13 14 14 14 13 12 12 12 12 12 12 12 12 12 12 12 12 12 12 12
12 12 12 12 13 13 13 13 12 12 12 12 12 12 13 13 13 13 12 13 12 12
8 9 10 11 12 12 12 13 14 14 13 13 12 10 13 13 12 12 13 13 13 14
5 5 6 7 8 9 9 10 10 11 11 10 7 6 10 11 11 11 12 12 13 13
5 4 4 4 4 5 5 5 5 4 4 4 3 4 6 7 9 9 9 9 9 10
3 4 5 5 4 4 2 1 0 0 0 0 -1 2 5 6 7 6 5 4 4 4
2 2 3 2 2 2 2 0 -1 -1 -1 -1 -3 -2 2 4 5 2 -1 -3 -2 -1
0 1 1 1 1 1 0 -0 -1 -1 -2 -3 -2 -4 -1 -1 -1 -2 -3 -4 -4 -5
-1 -1 -1 -0 -0 -0 -0 -1 -1 -2 -3 -3 -5 -5 -5 -4 -3 -4 -5 -5 -6 -6

GFSNIL_925_temp_081.txt.gz
Temp
18 18 18 17 16 14 13 13 13 12 13 12 13 13 13 14 14 15 15 16 16 16
18 17 17 16 15 15 14 13 13 13 13 12 13 13 13 13 13 14 14 15 15 15
17 16 16 15 15 15 14 14 13 13 13 13 12 12 12 12 12 13 13 14 14 14
16 16 16 15 15 15 15 14 13 13 12 12 12 12 11 11 12 12 13 13 13 13
15 15 15 15 15 15 14 13 13 13 12 12 12 12 12 11 11 11 11 11 11 11
15 15 15 14 14 13 13 12 12 13 13 13 12 12 12 12 11 11 11 11 11 11
13 14 14 14 15 14 13 13 13 12 12 12 12 12 12 12 12 12 12 12 12 12
8 10 11 11 12 12 12 11 12 12 11 10 10 10 11 11 12 12 13 13 13 13
5 6 7 7 7 9 9 9 9 8 7 6 5 5 8 11 11 11 11 11 11 11
5 5 5 5 5 4 3 4 4 3 3 2 3 5 6 8 8 7 7 7 7 7
5 5 4 3 3 2 1 1 0 0 0 1 1 4 6 5 5 4 2 2 1 1
3 4 3 3 2 2 1 -0 -0 -1 -1 -2 -2 0 3 3 1 -1 -2 -3 -2 -3
1 2 1 2 1 1 1 1 0 -1 -2 -2 -3 -3 -2 -1 -1 -2 -3 -4 -5 -5
0 0 1 1 1 1 1 1 -0 -1 -2 -3 -4 -5 -3 -1 -2 -2 -3 -4 -5 -6

GFSNIL_925_temp_084.txt.gz
Temp
18 18 17 17 15 14 13 13 12 12 13 13 13 13 12 12 13 13 14 16 17 17
18 18 17 16 15 15 14 13 13 13 13 13 13 13 13 12 13 13 14 15 16 16
18 18 17 16 15 15 14 13 13 12 13 12 13 13 13 13 13 13 14 15 15 16
17 17 16 16 15 15 14 14 13 13 12 13 12 13 13 13 13 13 13 14 14 15
16 16 15 15 15 15 14 13 13 13 13 12 12 12 12 12 12 12 12 13 13 13
16 15 15 15 15 14 14 13 13 13 13 12 12 12 12 11 12 12 12 11 12 12
12 13 13 14 14 14 13 13 13 12 12 12 12 12 12 12 11 11 11 11 12 12
9 10 10 10 10 11 12 11 11 11 10 9 10 10 11 11 11 12 12 11 12 11
7 8 7 7 8 8 8 7 8 7 6 6 5 6 8 10 9 10 10 9 7 8
5 4 4 4 3 3 3 4 3 3 3 3 3 6 7 8 8 7 6 5 6 5
3 3 2 2 1 1 1 0 -0 -0 1 2 3 4 5 5 5 3 2 1 1 1
2 2 2 1 1 -0 -1 -1 -2 -2 -2 -1 -0 1 1 2 1 -1 -2 -2 -3 -2
0 1 1 1 1 0 -0 -1 -2 -3 -4 -4 -3 -2 -1 -1 -2 -3 -4 -4 -5 -4
-1 -0 -0 0 1 -0 -1 -1 -2 -3 -4 -5 -4 -3 -2 -2 -3 -4 -5 -5 -6 -5

GFSNIL_925_temp_087.txt.gz
Temp
17 17 17 16 16 15 15 13 13 14 13 13 13 13 13 13 13 13 13 14 14 16
18 17 17 17 16 15 14 13 13 13 13 13 13 13 13 13 13 13 13 14 14 15
18 18 17 16 15 15 14 13 13 12 13 13 13 13 13 12 13 12 13 13 14 14
17 18 17 16 15 15 14 13 13 12 12 13 13 13 12 12 12 12 12 13 13 13
17 17 16 16 15 15 14 14 13 13 12 12 12 13 12 12 12 12 13 13 13 13
16 16 15 15 15 14 14 14 13 13 12 12 12 12 12 13 13 13 13 13 13 13
12 13 14 14 13 13 13 12 12 12 12 12 12 11 12 12 12 12 12 12 12 12
10 11 12 12 12 12 12 11 10 10 10 10 11 11 11 11 11 11 11 10 10 10
8 7 8 8 8 9 8 8 8 7 7 7 8 9 10 10 11 10 9 7 6 6
4 4 4 4 3 3 3 4 3 4 4 4 5 6 8 9 8 6 5 4 3 3
2 2 1 1 1 0 -0 0 0 -0 1 2 1 2 4 5 4 3 1 1 2 1
1 1 0 -0 -1 -1 -2 -2 -2 -1 -1 -0 -1 -1 -0 1 -0 -2 -3 -3 -2 -1
-0 -0 -0 -1 -1 -2 -3 -3 -3 -3 -3 -2 -2 -2 -1 -2 -3 -4 -4 -4 -4 -4
-1 -1 -1 -1 -2 -2 -3 -4 -4 -4 -4 -4 -2 -3 -3 -3 -4 -5 -5 -5 -5 -5

GFSNIL_925_temp_090.txt.gz
Temp
17 16 16 16 15 14 14 16 16 15 15 14 14 13 13 13 13 13 13 13 13 14
17 17 16 16 16 15 15 16 15 14 13 13 13 13 13 13 13 13 13 13 13 13
17 17 17 16 15 15 15 14 14 13 13 12 13 13 13 13 13 13 13 13 13 13
16 16 17 16 16 16 15 13 13 12 12 13 13 13 13 13 13 13 13 12 13 13
17 16 16 16 16 16 14 13 13 12 12 12 13 13 12 12 12 13 12 12 13 12
16 16 16 16 16 15 14 13 13 12 12 12 12 12 12 12 12 12 12 12 12 12
14 14 14 14 14 13 13 13 13 12 12 12 12 12 12 12 12 12 12 12 12 12
12 13 13 13 12 12 12 11 11 11 11 11 11 11 11 12 12 12 11 11 11 11
7 9 9 10 9 9 9 8 8 7 7 8 9 9 10 11 11 10 10 9 8 8
3 3 3 4 5 5 4 4 4 4 5 4 4 7 8 10 8 7 6 6 5 5
1 0 0 0 0 0 1 1 1 1 1 1 1 3 5 6 4 3 2 2 2 3
0 -0 -1 -2 -2 -2 -2 -2 -1 -1 -1 -1 -1 -0 1 3 0 -1 -1 -0 1 1
-1 -1 -1 -2 -3 -3 -3 -3 -3 -3 -2 -2 -2 -2 -1 -0 -1 -3 -4 -3 -2 -1
-2 -2 -2 -2 -3 -3 -4 -3 -4 -4 -4 -4 -4 -3 -3 -2 -3 -4 -4 -4 -4 -4

GFSNIL_925_temp_093.txt.gz
Temp
15 15 16 15 14 14 13 13 14 14 14 14 14 14 14 14 13 13 13 13 12 12
14 15 15 15 15 14 14 14 14 15 15 15 14 14 13 13 13 13 13 13 13 12
14 15 16 16 15 15 15 15 15 14 14 14 14 13 13 13 13 13 13 13 12 12
14 15 16 16 15 15 15 15 14 14 13 13 13 13 12 13 13 13 13 13 12 12
15 15 15 15 15 15 15 14 14 13 12 12 12 13 13 13 12 13 13 12 12 12
14 14 15 15 15 14 14 13 13 13 12 12 12 13 12 12 12 12 13 13 12 12
13 14 14 14 13 13 13 13 12 12 12 12 12 12 12 12 12 12 12 12 12 13
8 11 13 13 13 12 12 12 12 11 11 11 11 11 12 12 12 12 12 12 11 12
4 4 7 8 9 9 9 9 10 9 9 8 8 9 11 11 11 11 11 10 10 10
1 1 1 3 3 4 5 5 6 5 6 5 4 6 8 10 10 9 7 7 7 6
0 -0 -0 -0 -0 -0 1 1 1 2 2 2 -0 2 5 6 6 5 4 4 4 4
-1 -0 -1 -2 -2 -2 -2 -2 -2 -2 -1 -0 -1 -0 1 2 2 1 -0 1 1 1
-2 -2 -2 -2 -2 -2 -2 -3 -3 -3 -3 -3 -3 -1 0 0 -1 -2 -2 -2 -2 -1
-3 -3 -3 -3 -3 -3 -3 -3 -3 -4 -4 -4 -3 -3 -2 -2 -1 -3 -3 -3 -4 -4

GFSNIL_925_temp_099.txt.gz
Temp
16 16 16 16 16 16 15 15 14 15 15 15 14 15 14 14 14 14 14 13 13 13
15 15 15 15 15 15 15 14 15 15 15 15 15 14 13 13 14 14 13 13 13 13
15 15 14 14 14 14 14 14 14 14 14 14 14 14 14 13 13 14 13 13 13 13
14 14 14 14 14 14 14 16 13 13 14 14 13 13 13 13 13 13 13 13 13 13
13 13 13 14 13 13 16 15 13 12 12 13 13 14 13 13 13 13 13 13 13 13
10 12 13 13 13 13 13 14 12 12 13 13 13 13 13 12 12 12 13 13 12 13
4 7 10 13 13 13 13 13 12 12 13 12 12 12 12 12 12 12 12 12 12 12
2 4 5 9 11 12 13 13 12 12 11 11 11 11 12 12 12 12 12 12 12 12
1 1 3 2 7 4 9 9 10 10 9 9 9 10 11 11 11 11 10 10 10 11
-0 0 1 2 1 2 0 5 4 4 5 5 6 6 9 10 10 8 7 6 6 7
-2 -1 -0 1 1 1 -1 -1 -0 0 1 1 1 3 4 7 6 5 4 4 4 4
-3 -3 -2 -1 -1 -0 -1 -3 -3 -2 -2 -1 -1 0 1 2 3 1 0 1 1 2
-4 -4 -4 -3 -3 -2 -2 -3 -3 -3 -3 -3 -2 -1 -0 -0 -1 -2 -2 -2 -2 -1
-5 -4 -4 -4 -4 -4 -4 -4 -4 -5 -5 -4 -4 -4 -3 -2 -2 -3 -4 -4 -4 -4

GFSNIL_925_temp_102.txt.gz
Temp
16 18 19 19 18 17 16 16 16 15 15 15 19 18 15 15 15 15 14 14 14 14
17 19 17 17 17 17 18 19 17 15 14 14 14 14 14 15 15 14 14 14 14 14
16 16 16 16 17 16 18 17 16 15 14 14 15 14 15 15 14 14 14 14 14 14
14 15 15 15 15 15 15 15 15 15 14 14 14 14 14 14 14 14 14 13 14 14
8 11 14 14 14 14 14 14 14 15 14 14 14 14 14 14 14 14 13 13 13 13
3 5 9 13 14 14 14 14 13 13 15 15 14 14 13 14 14 13 13 13 13 13
2 3 4 8 12 13 13 13 13 14 13 13 13 13 13 13 13 13 13 14 13 13
1 2 2 6 7 10 13 13 12 12 12 12 12 12 12 12 12 12 12 12 12 12
-0 0 1 2 3 2 6 6 9 10 10 10 10 10 11 12 11 11 11 10 10 10
-2 -1 -0 0 2 1 0 0 0 3 6 6 6 8 10 10 9 9 7 7 6 7
-3 -2 -2 -1 -1 0 0 -0 -0 -1 0 1 1 3 5 6 6 4 3 3 3 3
-4 -3 -3 -3 -2 -2 -2 -0 -3 -3 -2 -1 -1 0 2 3 2 0 -0 0 1 1
-3 -4 -3 -3 -3 -3 -4 -4 -3 -3 -4 -3 -3 -2 -0 -0 -1 -2 -3 -3 -2 -2
-4 -3 -3 -3 -3 -3 -3 -4 -4 -5 -5 -5 -4 -4 -3 -2 -3 -4 -4 -4 -4 -4

GFSNIL_925_temp_105.txt.gz
Temp
6 8 10 14 18 20 19 17 16 16 15 15 15 16 16 16 16 16 16 16 16 16
6 8 12 16 19 19 18 17 16 16 15 16 15 15 15 15 15 16 16 16 16 15
5 7 13 18 19 19 18 18 17 16 15 15 15 15 15 15 15 16 16 16 16 16
4 5 9 16 18 18 18 18 18 17 15 15 15 15 15 15 15 16 16 15 15 15
2 4 5 10 13 17 17 18 17 16 16 16 15 14 15 16 15 15 15 15 14 14
1 3 3 5 8 14 15 15 16 16 16 16 15 15 16 17 13 15 15 15 14 14
-0 1 2 3 4 6 12 14 14 15 15 15 14 14 14 14 14 14 14 14 14 13
-1 -0 0 1 2 5 6 10 11 14 15 15 14 14 14 13 13 13 13 13 13 13
-2 -2 -1 -0 0 3 2 3 4 6 7 9 10 12 13 13 13 13 13 12 12 11
-3 -2 -2 -2 -1 -0 -0 2 1 0 1 1 5 9 11 12 11 10 9 8 8 8
-3 -2 -2 -3 -3 -3 -2 -1 -1 -1 -1 -1 -0 3 8 10 7 6 4 4 4 4
-2 -2 -2 -2 -3 -4 -4 -4 -4 -2 -2 -2 -2 -1 0 4 3 1 -0 -0 0 1
-3 -2 -2 -3 -3 -3 -4 -4 -5 -5 -4 -4 -3 -3 -2 -1 -1 -2 -3 -3 -3 -3
-3 -3 -3 -2 -2 -2 -2 -3 -4 -4 -5 -5 -5 -5 -4 -3 -3 -4 -4 -4 -5 -4

GFSNIL_925_temp_108.txt.gz
Temp
3 4 5 6 8 9 12 15 18 16 19 18 17 16 16 17 16 16 16 17 16 16
3 4 5 6 7 9 11 14 18 17 17 16 17 17 16 14 14 15 16 15 20 16
2 3 4 5 7 11 13 16 18 17 16 16 16 16 15 16 16 16 16 16 15 17
1 2 3 4 5 7 12 17 18 17 16 15 15 15 15 15 15 16 16 17 17 17
0 1 2 2 3 5 7 14 17 17 17 15 15 15 15 15 15 15 15 15 15 17
-1 -0 0 1 2 3 6 10 14 17 18 15 14 15 14 15 15 16 16 17 14 15
-1 -1 -1 -0 0 1 3 6 9 12 16 16 15 14 14 14 14 14 13 14 15 15
-2 -2 -2 -2 -1 -1 1 3 4 5 9 10 13 12 14 14 13 15 14 14 14 14
-2 -2 -2 -3 -3 -2 -2 -0 1 1 2 2 4 9 13 14 14 13 13 13 12 12
-2 -2 -2 -3 -3 -4 -4 -3 -2 -1 0 -0 1 3 7 13 13 12 10 9 8 8
-2 -2 -2 -2 -3 -4 -4 -4 -4 -4 -3 -2 -2 0 0 2 7 6 4 4 4 4
-2 -2 -2 -2 -2 -3 -3 -4 -5 -5 -5 -4 -3 -1 -0 -1 -1 -1 -2 -1 -1 1
-3 -3 -3 -2 -2 -2 -2 -3 -4 -4 -5 -5 -5 -4 -3 -1 -3 -4 -4 -4 -4 -4
-4 -3 -4 -4 -3 -3 -3 -3 -4 -4 -4 -4 -5 -5 -5 -5 -5 -5 -5 -5 -5 -5

GFSNIL_925_temp_111.txt.gz
Temp
2 2 3 4 4 5 6 7 8 9 12 15 18 18 16 16 18 17 16 15 16 16
1 2 2 2 3 5 6 7 9 10 11 14 17 18 15 17 16 16 17 16 15 15
0 0 1 1 3 3 4 5 8 11 12 14 16 18 16 17 17 14 13 15 16 14
-0 -0 0 1 1 2 3 4 6 11 14 15 16 17 16 16 14 15 14 14 14 14
-1 -1 -1 -0 0 1 1 3 4 8 12 16 18 18 18 15 14 14 14 15 15 16
-1 -1 -1 -1 -1 -1 0 1 2 4 8 12 16 16 15 14 15 15 15 14 16 15
-1 -2 -2 -2 -2 -2 -1 -1 0 2 4 5 9 12 12 14 14 14 14 14 16 16
-2 -2 -2 -3 -3 -3 -3 -2 -2 -1 0 2 2 2 6 12 13 14 13 13 14 14
-2 -2 -2 -2 -3 -4 -4 -4 -4 -3 -2 -1 -1 2 7 10 13 12 13 12 12 11
-2 -2 -2 -2 -3 -3 -4 -4 -4 -4 -4 -3 -2 0 5 2 4 8 9 10 9 8
-3 -3 -3 -3 -3 -3 -3 -4 -4 -4 -4 -4 -3 -2 1 0 -1 -2 -0 1 3 4
-4 -4 -4 -4 -3 -3 -4 -4 -4 -4 -4 -4 -4 -4 -2 0 -1 -3 -4 -4 -2 -0
-4 -5 -5 -5 -4 -4 -4 -4 -5 -5 -5 -5 -4 -4 -5 -4 -4 -4 -4 -4 -4 -4
-4 -5 -5 -5 -5 -5 -5 -5 -5 -6 -6 -5 -5 -4 -4 -5 -5 -5 -5 -5 -5 -4

GFSNIL_925_temp_114.txt.gz
Temp
1 1 1 1 2 2 4 4 5 5 7 7 9 10 12 14 15 15 14 15 15 14
0 0 0 1 1 2 2 3 3 4 5 7 9 10 11 14 15 15 15 14 15 15
-1 -0 -0 -0 0 0 1 2 3 3 4 6 9 11 11 12 14 14 15 16 16 15
-1 -1 -1 -1 -1 -1 -0 0 1 2 3 6 8 12 12 12 14 15 15 13 14 15
-1 -1 -1 -2 -2 -2 -2 -1 -0 1 2 3 6 11 13 13 14 15 14 14 13 13
-2 -2 -2 -2 -3 -3 -3 -2 -2 -1 0 1 2 5 9 13 15 15 14 14 13 13
-2 -2 -2 -3 -3 -3 -3 -3 -3 -2 -2 -1 0 1 4 10 13 13 14 14 13 13
-2 -2 -2 -2 -3 -3 -4 -4 -4 -3 -3 -2 -1 -1 1 6 10 14 12 14 14 13
-3 -3 -3 -3 -3 -4 -4 -4 -4 -4 -3 -3 -3 -2 -0 2 7 8 6 11 12 11
-4 -4 -4 -3 -3 -4 -4 -5 -5 -5 -4 -3 -3 -3 -1 -1 0 1 0 0 3 6
-5 -5 -4 -4 -4 -4 -4 -5 -5 -5 -5 -4 -3 -4 -3 -2 -1 0 -1 -2 -2 -0
-5 -6 -6 -6 -6 -5 -6 -6 -5 -6 -5 -5 -4 -4 -4 -4 -4 -3 -2 -2 -3 -3
-5 -6 -6 -6 -7 -6 -6 -7 -7 -6 -6 -6 -5 -4 -4 -4 -4 -4 -4 -4 -4 -3
-5 -6 -6 -7 -7 -7 -7 -7 -7 -7 -6 -6 -6 -5 -4 -4 -4 -5 -5 -5 -4 -5

GFSNIL_925_temp_117.txt.gz
Temp
0 0 1 1 1 1 1 2 2 3 3 4 5 6 7 9 9 11 13 14 14 14
-0 -0 -0 -0 -0 -0 0 1 1 1 2 3 4 5 7 9 10 11 13 13 13 13
-1 -1 -1 -1 -1 -1 -1 -1 -0 0 1 2 3 4 5 7 10 10 13 13 13 13
-1 -2 -2 -2 -2 -3 -2 -2 -1 -1 -0 1 1 2 3 6 10 11 12 13 13 13
-2 -2 -2 -2 -3 -3 -3 -3 -2 -2 -1 -1 -0 1 1 3 6 11 12 13 13 13
-2 -2 -2 -2 -3 -3 -3 -3 -3 -3 -2 -2 -1 -1 -0 1 4 7 12 13 13 15
-3 -3 -3 -3 -4 -4 -4 -4 -4 -3 -3 -3 -2 -2 -1 -1 3 6 9 12 13 14
-3 -4 -4 -4 -4 -4 -4 -4 -4 -4 -3 -3 -3 -3 -2 -1 -0 1 4 8 9 10
-4 -5 -5 -4 -5 -4 -5 -5 -5 -5 -4 -3 -3 -3 -3 -3 -2 -2 -1 0 3 4
-5 -5 -5 -5 -5 -6 -6 -6 -6 -6 -5 -4 -3 -3 -4 -4 -3 -3 -3 -2 -0 1
-6 -6 -6 -6 -6 -6 -7 -7 -7 -6 -6 -5 -4 -4 -4 -4 -4 -4 -4 -3 -3 -2
-6 -7 -7 -7 -7 -7 -7 -7 -7 -7 -6 -6 -5 -4 -4 -4 -4 -4 -4 -4 -4 -4
-6 -7 -7 -7 -7 -7 -7 -7 -7 -7 -6 -6 -6 -5 -5 -5 -5 -5 -5 -5 -5 -5
-6 -7 -7 -7 -7 -7 -7 -7 -7 -7 -7 -7 -7 -7 -6 -6 -6 -6 -6 -5 -5 -5

GFSNIL_925_temp_120.txt.gz
Temp
-1 -0 -0 -0 -0 -0 -0 -0 0 1 1 2 3 3 5 6 7 8 9 10 11 14
-1 -1 -1 -2 -2 -2 -2 -1 -1 -1 0 1 2 2 3 4 6 7 9 10 11 13
-1 -2 -2 -2 -2 -2 -2 -2 -2 -2 -1 -0 0 1 1 2 3 4 7 10 11 12
-2 -2 -2 -2 -3 -3 -3 -2 -2 -2 -2 -1 -1 -1 -0 0 2 2 5 9 11 12
-3 -2 -3 -3 -4 -4 -4 -3 -3 -2 -2 -2 -2 -2 -1 -1 0 2 3 6 10 11
-3 -3 -3 -3 -4 -4 -4 -4 -4 -3 -3 -2 -2 -2 -2 -1 -0 0 2 3 6 11
-4 -4 -4 -4 -5 -5 -5 -5 -5 -4 -3 -3 -3 -3 -3 -2 -2 -1 -1 0 1 3
-5 -5 -5 -5 -5 -6 -6 -6 -6 -5 -4 -3 -3 -3 -3 -3 -3 -3 -2 -2 -1 -0
-5 -5 -5 -5 -6 -6 -6 -7 -6 -6 -5 -5 -4 -4 -3 -4 -4 -4 -4 -3 -3 -2
-6 -6 -6 -6 -6 -6 -7 -7 -7 -7 -6 -6 -5 -4 -4 -4 -4 -4 -5 -4 -4 -4
-7 -7 -7 -6 -6 -7 -7 -7 -7 -7 -7 -7 -6 -5 -5 -5 -5 -5 -5 -5 -5 -4
-7 -7 -7 -7 -7 -7 -8 -7 -8 -7 -7 -7 -7 -6 -5 -6 -6 -6 -6 -6 -6 -5
-7 -7 -7 -8 -8 -7 -7 -8 -8 -8 -8 -8 -8 -7 -6 -7 -7 -7 -7 -7 -7 -6
-7 -7 -7 -7 -8 -8 -8 -8 -9 -9 -9 -9 -8 -8 -7 -7 -8 -9 -8 -8 -8 -7